[[{"header":{"parameterUnit":"m.s-1","parameterCategory":2,"la1":30.2992,"la2":30.254,"lo1":-89.0895,"lo2":-89.0443,"dy":0.0025,"dx":0.0025,"nx":19,"ny":19,"refTime":"2026-03-11T09:00:00:Z","depth":"0","parameterNumber":2,"parameterNumberName":"U-component_of_CURRENTS"},"data":[0,0,0,0.1537,0.1538,0.1578,0.1578,0.1619,0.162,0,0,0,0,0,0,0,0,0,0,0,0.1521,0.1521,0.1537,0.1538,0.1578,0.1578,0.1619,0.162,0,0,0,0,0,0,0,0,0,0,0,0.152,0.1521,0.1521,0.1538,0.1578,0.1578,0.1619,0.159,0,0,0,0,0,0,0,0,0,0,0.1552,0.1538,0.1521,0.1521,0.1539,0.1578,0.1578,0.1589,0.1592,0.16,0,0.161,0,0.162,0.1623,0.1623,0,0,0,0.1533,0.1536,0.155,0.1521,0.1539,0.1578,0.1559,0.1591,0.1594,0.1604,0.161,0.1612,0.162,0.1623,0.1623,0.169,0.169,0,0,0.1531,0.1524,0.1548,0.1553,0.1554,0.1557,0.156,0.1593,0.1596,0.1611,0.1613,0.1621,0.1623,0.1624,0.169,0.169,0,0,0,0.1528,0.1522,0.1536,0.1551,0.1561,0.1559,0.1562,0.1594,0.16,0.1614,0.1621,0.1624,0.1624,0.1689,0.169,0.172,0,0,0,0.1527,0.1521,0.1535,0.153,0.1561,0.1579,0.1562,0.1598,0.1602,0.1621,0.1624,0.1625,0.1689,0.1689,0.1718,0.1719,0,0,0,0.1518,0.152,0.1527,0.153,0.155,0.1579,0.1587,0.1599,0.1607,0.1623,0.1625,0.1688,0.1689,0.1716,0.1717,0.1797,0,0,0,0.1506,0.1519,0.1526,0.1548,0.155,0.1589,0.1587,0.1613,0.1628,0.1624,0.1689,0.169,0.1716,0.1716,0.1794,0.1811,0.1824,0,0,0.1515,0.152,0.1534,0.1542,0.1576,0.1583,0.1627,0.1642,0.1645,0.1675,0.1677,0.1718,0.1717,0.1796,0.1865,0.1876,0,0,0,0.1532,0.1537,0.1552,0.1573,0.1604,0.1634,0.1654,0.167,0.1702,0.166,0.1729,0.1727,0.1777,0.1782,0.1791,0.1842,0.1694,0.1694,0.1694,0.1515,0.1539,0.1561,0.1594,0.1622,0.1671,0.1703,0.1729,0.173,0.1753,0.176,0.1848,0.1853,0.186,0.1912,0.1776,0.1776,0.1776,0.1776,0.1514,0.1521,0.1559,0.1585,0.163,0.1667,0.1741,0.1761,0.1837,0.1802,0.185,0.1822,0.1872,0.1924,0.1778,0.1778,0.1777,0.1777,0.1777,0.1484,0.1492,0.1512,0.1551,0.1596,0.1658,0.1738,0.1803,0.1854,0.1898,0.1946,0.1946,0.1987,0.1944,0.1945,0.1945,0.1946,0.1946,0.1946,0.1438,0.1464,0.1471,0.1517,0.1538,0.161,0.1744,0.1823,0.1944,0.198,0.1981,0.2026,0.19,0.1889,0.1952,0.1951,0.195,0.1949,0.1949,0.1395,0.1405,0.1416,0.1432,0.1493,0.1541,0.1695,0.1878,0.1992,0.2049,0.2147,0.2042,0.2042,0.2034,0.2027,0.2122,0.2122,0.2122,0.2122,0.1354,0.1365,0.1364,0.1377,0.1424,0.1505,0.1617,0.1809,0.2069,0.2194,0.2248,0.2208,0.2199,0.2206,0.2194,0.2189,0.2323,0.2323,0.2324,0.1322,0.1333,0.1313,0.1334,0.1376,0.1455,0.153,0.1707,0.2117,0.2337,0.2322,0.2314,0.2256,0.2237,0.2242,0.2222,0.221,0,0]},{"header":{"parameterUnit":"m.s-1","parameterCategory":2,"la1":30.2992,"la2":30.254,"lo1":-89.0895,"lo2":-89.0443,"dy":0.0025,"dx":0.0025,"nx":19,"ny":19,"refTime":"2026-03-11T09:00:00:Z","depth":"0","parameterNumber":3,"parameterNumberName":"V-component_of_CURRENTS"},"data":[0,0,0,0.0143,0.0142,0.0094,0.0094,0.0014,0.0013,0,0,0,0,0,0,0,0,0,0,0,0.0161,0.0161,0.0143,0.0142,0.0094,0.0094,0.0014,0.0013,0,0,0,0,0,0,0,0,0,0,0,0.0161,0.0161,0.0161,0.0142,0.0094,0.0094,0.0014,0.0053,0,0,0,0,0,0,0,0,0,0,0.0101,0.0128,0.0161,0.0161,0.0142,0.0094,0.0094,0.0055,0.0051,0.0033,0,0.0033,0,0.0024,0.0008,0.0008,0,0,0,0.0133,0.0132,0.0116,0.0161,0.0141,0.0094,0.0113,0.0053,0.0048,0.0027,0.0032,0.0029,0.0022,0.0008,0.0008,-0.0014,-0.0014,0,0,0.0136,0.0152,0.012,0.0113,0.0137,0.0115,0.0112,0.005,0.005,0.0031,0.0027,0.0021,0.0008,0.0007,-0.0014,-0.0014,0,0,0,0.0149,0.0154,0.014,0.0116,0.011,0.0114,0.011,0.0052,0.0047,0.0026,0.002,0.0007,0.0006,-0.0015,-0.0014,0.0057,0,0,0,0.0151,0.0162,0.0141,0.015,0.0112,0.0084,0.0114,0.0051,0.0044,0.002,0.0007,0.0005,-0.0015,-0.0014,0.0055,0.0101,0,0,0,0.0162,0.0163,0.016,0.0151,0.0133,0.0085,0.0076,0.005,0.0041,0.0008,0.0005,-0.0015,-0.0015,0.0052,0.0096,0.0148,0,0,0,0.0176,0.0189,0.016,0.0174,0.0134,0.0128,0.0076,0.0063,0.0042,0.0007,-0.0015,-0.0014,0.0052,0.0093,0.0145,0.0216,0.0237,0,0,0.0203,0.0193,0.0201,0.0175,0.0188,0.0133,0.0142,0.009,0.0045,0.0001,0.0001,0.0056,0.0096,0.0148,0.026,0.0279,0,0,0,0.0217,0.0226,0.0224,0.0224,0.0204,0.0195,0.014,0.0115,0.008,0.0037,0.0051,0.0074,0.0105,0.014,0.0156,0.0083,-0.0011,-0.0011,-0.0011,0.0272,0.0263,0.0286,0.0275,0.027,0.0234,0.0226,0.0181,0.0122,0.0121,0.0128,0.0213,0.0251,0.0264,0.0187,0.0115,0.0116,0.0116,0.0116,0.0326,0.0343,0.0337,0.0354,0.0339,0.0336,0.0299,0.0264,0.0255,0.019,0.0215,0.0209,0.0285,0.0197,0.012,0.012,0.0119,0.0119,0.0118,0.0362,0.0372,0.0378,0.0409,0.0428,0.0402,0.0454,0.0401,0.0334,0.0356,0.0384,0.0383,0.031,0.0364,0.0364,0.0365,0.0365,0.0365,0.0366,0.0395,0.0406,0.0441,0.0469,0.0496,0.0538,0.0546,0.056,0.0536,0.0482,0.0482,0.0337,0.0289,0.0284,0.0373,0.0371,0.037,0.037,0.0369,0.0442,0.0442,0.0503,0.0537,0.0621,0.0728,0.0729,0.078,0.0763,0.0762,0.0538,0.0546,0.0533,0.052,0.0521,0.0665,0.0665,0.0665,0.0665,0.0474,0.0478,0.0565,0.0639,0.0742,0.0818,0.0983,0.0996,0.0828,0.072,0.0616,0.0556,0.0547,0.053,0.0516,0.0514,0.0653,0.0653,0.0653,0.0514,0.0535,0.0606,0.0675,0.0794,0.094,0.111,0.1194,0.0907,0.0639,0.0502,0.0503,0.0395,0.0387,0.0339,0.0326,0.0314,0,0]}],[{"header":{"parameterUnit":"m.s-1","parameterCategory":2,"la1":30.2992,"la2":30.254,"lo1":-89.0895,"lo2":-89.0443,"dy":0.0025,"dx":0.0025,"nx":19,"ny":19,"refTime":"2026-03-11T09:00:00:Z","depth":"2","parameterNumber":2,"parameterNumberName":"U-component_of_CURRENTS"},"data":[0,0,0,0.1475,0.1476,0.1523,0.1523,0.1569,0.1569,0,0,0,0,0,0,0,0,0,0,0,0.1457,0.1457,0.1475,0.1476,0.1523,0.1523,0.1569,0.1569,0,0,0,0,0,0,0,0,0,0,0,0.1457,0.1457,0.1458,0.1476,0.1523,0.1523,0.1569,0.1536,0,0,0,0,0,0,0,0,0,0,0.1492,0.1477,0.1457,0.1458,0.1477,0.1523,0.1523,0.1534,0.1538,0.1545,0,0.1556,0,0.1567,0.1572,0.1572,0,0,0,0.1472,0.1474,0.149,0.1458,0.1477,0.1523,0.1501,0.1536,0.154,0.1549,0.1556,0.1558,0.1567,0.1573,0.1573,0.164,0.164,0,0,0.1469,0.1462,0.1487,0.1492,0.1494,0.1499,0.1502,0.1539,0.1543,0.1557,0.156,0.1568,0.1573,0.1573,0.164,0.164,0,0,0,0.1465,0.146,0.1475,0.149,0.1502,0.1501,0.1504,0.1541,0.1547,0.156,0.1569,0.1573,0.1574,0.1639,0.164,0.1668,0,0,0,0.1463,0.1458,0.1474,0.1469,0.1501,0.1524,0.1506,0.1544,0.1549,0.1568,0.1573,0.1574,0.1639,0.1639,0.1666,0.1668,0,0,0,0.1454,0.1457,0.1464,0.1469,0.1492,0.1524,0.1532,0.1546,0.1555,0.1572,0.1574,0.1638,0.1639,0.1664,0.1666,0.1739,0,0,0,0.1441,0.1455,0.1464,0.1486,0.1492,0.1531,0.1531,0.156,0.1577,0.1573,0.1639,0.164,0.1664,0.1665,0.1736,0.1732,0.1742,0,0,0.145,0.1456,0.1469,0.1479,0.1513,0.1524,0.1568,0.1588,0.1594,0.1624,0.1626,0.1666,0.1666,0.1738,0.1785,0.1793,0,0,0,0.1467,0.1473,0.1487,0.151,0.1541,0.1573,0.1597,0.1615,0.165,0.1609,0.1677,0.1676,0.1721,0.1714,0.1721,0.1644,0.1644,0.1644,0.1644,0.1451,0.1475,0.1497,0.153,0.1559,0.161,0.1643,0.1672,0.1675,0.1699,0.1707,0.1789,0.1781,0.1787,0.1722,0.1722,0.1723,0.1723,0.1723,0.145,0.1458,0.1497,0.1523,0.157,0.1608,0.1682,0.1703,0.1777,0.1747,0.179,0.1752,0.1796,0.1725,0.1725,0.1724,0.1724,0.1724,0.1724,0.1422,0.143,0.1453,0.1493,0.1541,0.1603,0.168,0.1743,0.1795,0.1837,0.1867,0.1866,0.1816,0.1879,0.188,0.188,0.188,0.1881,0.1881,0.1378,0.1404,0.1414,0.1462,0.1486,0.1559,0.1686,0.176,0.1867,0.1898,0.1898,0.1843,0.1838,0.1826,0.1886,0.1885,0.1884,0.1884,0.1884,0.1337,0.1349,0.1362,0.138,0.1444,0.1488,0.1633,0.1796,0.1902,0.1952,0.1949,0.1946,0.1944,0.1937,0.1928,0.2011,0.2011,0.2011,0.2011,0.1298,0.1309,0.1313,0.1328,0.1374,0.1451,0.154,0.1683,0.1851,0.1909,0.1913,0.1852,0.185,0.1838,0.1834,0.1821,0.1876,0.1876,0.1875,0.1267,0.1279,0.1263,0.1287,0.1327,0.14,0.1441,0.1508,0.1694,0.1865,0.1834,0.2013,0.1932,0.1926,0.1913,0.1904,0.1885,0,0]},{"header":{"parameterUnit":"m.s-1","parameterCategory":2,"la1":30.2992,"la2":30.254,"lo1":-89.0895,"lo2":-89.0443,"dy":0.0025,"dx":0.0025,"nx":19,"ny":19,"refTime":"2026-03-11T09:00:00:Z","depth":"2","parameterNumber":3,"parameterNumberName":"V-component_of_CURRENTS"},"data":[0,0,0,-0.0015,-0.0016,-0.0053,-0.0053,-0.0126,-0.0126,0,0,0,0,0,0,0,0,0,0,0,-0.0001,-0.0001,-0.0015,-0.0016,-0.0053,-0.0053,-0.0126,-0.0126,0,0,0,0,0,0,0,0,0,0,0,-0.0001,-0.0001,-0.0001,-0.0016,-0.0052,-0.0053,-0.0125,-0.0093,0,0,0,0,0,0,0,0,0,0,-0.0055,-0.0031,-0.0001,-0.0001,-0.0016,-0.0052,-0.0053,-0.0091,-0.0095,-0.0114,0,-0.0113,0,-0.0119,-0.0131,-0.0131,0,0,0,-0.0024,-0.0028,-0.0041,-0.0001,-0.0016,-0.0052,-0.0038,-0.0093,-0.0098,-0.0119,-0.0114,-0.0116,-0.012,-0.0131,-0.0132,-0.0152,-0.0152,0,0,-0.0022,-0.0008,-0.0038,-0.0043,-0.0018,-0.0037,-0.0039,-0.0096,-0.0096,-0.0114,-0.0118,-0.0122,-0.0132,-0.0132,-0.0152,-0.0152,0,0,0,-0.0011,-0.0007,-0.0018,-0.004,-0.0044,-0.0038,-0.0041,-0.0093,-0.0097,-0.0119,-0.0122,-0.0132,-0.0133,-0.0153,-0.0152,-0.0083,0,0,0,-0.001,0.0,-0.0017,-0.0009,-0.0042,-0.0064,-0.0036,-0.0093,-0.01,-0.0122,-0.0132,-0.0134,-0.0153,-0.0152,-0.0086,-0.0042,0,0,0,-0.0001,0.0001,-0.0001,-0.0008,-0.0021,-0.0063,-0.0071,-0.0095,-0.0102,-0.0131,-0.0134,-0.0153,-0.0152,-0.0088,-0.0046,-0.0005,0,0,0,0.001,0.0024,-0.0001,0.0014,-0.0021,-0.0024,-0.0071,-0.008,-0.0099,-0.0133,-0.0153,-0.0152,-0.0089,-0.0049,-0.0008,0.0038,0.0056,0,0,0.0036,0.0028,0.0037,0.0014,0.003,-0.002,-0.0009,-0.0055,-0.0096,-0.0139,-0.0139,-0.0085,-0.0047,-0.0006,0.0081,0.0097,0,0,0,0.0051,0.006,0.006,0.0062,0.0045,0.004,-0.0009,-0.0031,-0.0062,-0.0104,-0.0089,-0.0067,-0.0044,-0.0022,-0.0009,-0.0149,-0.0149,-0.0149,-0.0149,0.0104,0.0096,0.012,0.0112,0.0109,0.0078,0.007,0.003,-0.0023,-0.0022,-0.0015,0.006,0.0084,0.0094,-0.0027,-0.0027,-0.0027,-0.0026,-0.0026,0.0157,0.0173,0.017,0.0189,0.0177,0.0177,0.0141,0.011,0.01,0.0044,0.0063,0.0045,0.0113,-0.0021,-0.0022,-0.0023,-0.0023,-0.0024,-0.0024,0.0192,0.0202,0.0211,0.0244,0.0265,0.0243,0.0287,0.0237,0.0175,0.0193,0.0202,0.0201,0.0112,0.0199,0.0199,0.02,0.02,0.02,0.0201,0.0224,0.0236,0.0273,0.0302,0.033,0.0371,0.0373,0.0379,0.0346,0.0294,0.0293,0.0136,0.0129,0.0124,0.0207,0.0205,0.0205,0.0204,0.0204,0.0268,0.027,0.0331,0.0366,0.0446,0.0537,0.0534,0.0561,0.0538,0.0529,0.0345,0.0339,0.0324,0.0312,0.0311,0.0437,0.0437,0.0437,0.0437,0.0297,0.0302,0.0388,0.0459,0.0551,0.0615,0.0744,0.0724,0.0609,0.0511,0.0508,0.0463,0.0452,0.0439,0.0425,0.0424,0.058,0.058,0.058,0.0332,0.0354,0.0423,0.049,0.0595,0.0718,0.0844,0.0847,0.0664,0.0583,0.0505,0.0452,0.0374,0.0362,0.0327,0.031,0.0303,0,0]}],[{"header":{"parameterUnit":"m.s-1","parameterCategory":2,"la1":30.2992,"la2":30.254,"lo1":-89.0895,"lo2":-89.0443,"dy":0.0025,"dx":0.0025,"nx":19,"ny":19,"refTime":"2026-03-11T09:00:00:Z","depth":"4","parameterNumber":2,"parameterNumberName":"U-component_of_CURRENTS"},"data":[0,0,0,0.1023,0.1025,0.113,0.113,0.121,0.1211,0,0,0,0,0,0,0,0,0,0,0,0.099,0.0991,0.1023,0.1025,0.1129,0.113,0.121,0.1211,0,0,0,0,0,0,0,0,0,0,0,0.0989,0.099,0.0992,0.1026,0.1129,0.113,0.121,0.1145,0,0,0,0,0,0,0,0,0,0,0.105,0.103,0.099,0.0992,0.1026,0.1129,0.113,0.1142,0.1149,0.1148,0,0.1172,0,0.1191,0.1215,0.1215,0,0,0,0.1025,0.1024,0.105,0.0992,0.1027,0.1129,0.1082,0.1146,0.1154,0.1156,0.1173,0.1176,0.1193,0.1216,0.1216,0.1296,0.1296,0,0,0.1019,0.101,0.1045,0.1055,0.1063,0.1079,0.1086,0.1151,0.1163,0.1173,0.1179,0.1194,0.1216,0.1216,0.1295,0.1296,0,0,0,0.1003,0.1006,0.1031,0.1051,0.1073,0.1082,0.109,0.116,0.1168,0.118,0.1195,0.1216,0.1217,0.1295,0.1296,0.1327,0,0,0,0.0999,0.0996,0.1028,0.1023,0.1073,0.1126,0.1097,0.1164,0.1172,0.1194,0.1216,0.1218,0.1295,0.1295,0.1325,0.133,0,0,0,0.0983,0.0994,0.1008,0.1023,0.1067,0.1126,0.1138,0.1166,0.1181,0.1215,0.1218,0.1294,0.1295,0.1324,0.1328,0.1381,0,0,0,0.0966,0.0986,0.1009,0.1039,0.1066,0.1124,0.1138,0.119,0.1221,0.1217,0.1295,0.1296,0.1323,0.1326,0.1379,0.1217,0,0,0,0.0974,0.0987,0.1003,0.1026,0.1072,0.1109,0.1168,0.1218,0.1234,0.1268,0.1271,0.1326,0.1327,0.1381,0.1275,0,0,0,0,0.0995,0.1007,0.1025,0.1063,0.1108,0.1163,0.1213,0.1242,0.1301,0.1258,0.1337,0.1337,0.137,0.1269,0.13,0.13,0.13,0.13,0.13,0.0978,0.1007,0.1039,0.1085,0.1129,0.1207,0.1257,0.1306,0.1319,0.1356,0.1371,0.1442,0.1337,0.1385,0.1385,0.1386,0.1386,0.1386,0.1386,0.0976,0.0988,0.1046,0.1089,0.1156,0.1216,0.1308,0.1343,0.1426,0.1411,0.1442,0.1318,0.1389,0.1389,0.1388,0.1388,0.1387,0.1387,0.1387,0.0944,0.0955,0.0999,0.1068,0.1145,0.1231,0.1314,0.1391,0.1452,0.149,0.1411,0.1474,0.1463,0.1525,0.1525,0.1525,0.1525,0.1526,0.1526,0.0887,0.0931,0.0966,0.1046,0.1096,0.119,0.1328,0.139,0.1476,0.1429,0.1514,0.1489,0.1485,0.1472,0.153,0.1529,0.1529,0.1528,0.1528,0.0835,0.0865,0.0905,0.0952,0.1058,0.1112,0.1264,0.135,0.1411,0.1417,0.1402,0.1407,0.1385,0.1383,0.1366,0.1395,0.1393,0.1391,0,0.079,0.081,0.0856,0.0904,0.0961,0.1063,0.1111,0.1209,0.1292,0.1243,0.1414,0.1393,0.1396,0.1367,0.1363,0.1339,0,0,0,0.0756,0.0779,0.0791,0.0852,0.0905,0.0999,0.1119,0.1118,0.127,0.129,0.1344,0.1356,0.1467,0.1542,0.1521,0.1516,0.1495,0,0]},{"header":{"parameterUnit":"m.s-1","parameterCategory":2,"la1":30.2992,"la2":30.254,"lo1":-89.0895,"lo2":-89.0443,"dy":0.0025,"dx":0.0025,"nx":19,"ny":19,"refTime":"2026-03-11T09:00:00:Z","depth":"4","parameterNumber":3,"parameterNumberName":"V-component_of_CURRENTS"},"data":[0,0,0,-0.0096,-0.0096,-0.0125,-0.0125,-0.0178,-0.0179,0,0,0,0,0,0,0,0,0,0,0,-0.0086,-0.0087,-0.0096,-0.0096,-0.0125,-0.0125,-0.0178,-0.0179,0,0,0,0,0,0,0,0,0,0,0,-0.0086,-0.0086,-0.0087,-0.0096,-0.0125,-0.0125,-0.0178,-0.0154,0,0,0,0,0,0,0,0,0,0,-0.0124,-0.011,-0.0086,-0.0087,-0.0096,-0.0125,-0.0125,-0.0152,-0.0155,-0.0168,0,-0.0169,0,-0.0173,-0.0182,-0.0182,0,0,0,-0.0102,-0.0108,-0.0116,-0.0087,-0.0097,-0.0125,-0.0113,-0.0154,-0.0157,-0.0172,-0.017,-0.0172,-0.0174,-0.0182,-0.0183,-0.0196,-0.0195,0,0,-0.01,-0.0094,-0.0113,-0.0117,-0.01,-0.0112,-0.0114,-0.0156,-0.0158,-0.017,-0.0173,-0.0175,-0.0183,-0.0183,-0.0196,-0.0195,0,0,0,-0.0092,-0.0093,-0.0099,-0.0115,-0.0118,-0.0113,-0.0115,-0.0156,-0.0158,-0.0174,-0.0175,-0.0183,-0.0184,-0.0196,-0.0196,-0.0144,0,0,0,-0.0091,-0.0087,-0.0098,-0.0095,-0.0117,-0.0135,-0.0115,-0.0155,-0.016,-0.0175,-0.0183,-0.0184,-0.0196,-0.0196,-0.0146,-0.0113,0,0,0,-0.0086,-0.0087,-0.0089,-0.0095,-0.0104,-0.0134,-0.0139,-0.0156,-0.0161,-0.0182,-0.0184,-0.0196,-0.0196,-0.0148,-0.0117,-0.0099,0,0,0,-0.008,-0.0071,-0.0089,-0.0078,-0.0104,-0.0102,-0.0138,-0.0146,-0.016,-0.0183,-0.0196,-0.0196,-0.0149,-0.0119,-0.0101,-0.0065,0,0,0,-0.0063,-0.0069,-0.0061,-0.0077,-0.0061,-0.0098,-0.0087,-0.0124,-0.0156,-0.0186,-0.0186,-0.0146,-0.0117,-0.01,-0.0032,0,0,0,0,-0.0051,-0.0044,-0.0043,-0.0039,-0.0048,-0.005,-0.0086,-0.0104,-0.0129,-0.0162,-0.0148,-0.0132,-0.0123,-0.0108,-0.0193,-0.0193,-0.0193,-0.0193,-0.0193,-0.002,-0.002,0.0001,0.0001,0.0002,-0.0019,-0.0026,-0.0058,-0.0097,-0.0099,-0.0092,-0.0046,-0.0028,-0.0102,-0.0102,-0.0101,-0.0101,-0.0101,-0.0101,0.0018,0.0031,0.0037,0.0056,0.0051,0.0055,0.0029,0.0003,-0.001,-0.0048,-0.0042,-0.0057,-0.0096,-0.0097,-0.0098,-0.0098,-0.0099,-0.0099,-0.0099,0.0039,0.0047,0.006,0.0091,0.0111,0.0101,0.0128,0.0092,0.0043,0.0052,0.0051,-0.0011,-0.0013,0.0048,0.0048,0.0049,0.0049,0.0049,0.0049,0.0052,0.0068,0.0096,0.0127,0.0152,0.0184,0.0185,0.0183,0.0135,0.0122,0.0067,0.0004,-0.0,-0.0005,0.0053,0.0052,0.0052,0.0051,0.0051,0.0073,0.0079,0.0125,0.0155,0.0224,0.0253,0.0261,0.0259,0.0257,0.0234,0.015,0.0144,0.0129,0.0121,0.012,0.0216,0.0217,0.0218,0,0.0083,0.009,0.0152,0.0208,0.0276,0.0296,0.0337,0.0331,0.0266,0.0261,0.0228,0.0133,0.0129,0.0108,0.0102,0.0101,0,0,0,0.0097,0.0114,0.0159,0.0216,0.0295,0.0335,0.035,0.0346,0.0281,0.0291,0.0235,0.0231,0.0141,0.0063,0.0025,0.0019,0.001,0,0]}]]